EW8495 Weather Reports


Display with metric or nautical units.
time (UTC)temp
F
wind
direction
speed
MPH
gust
MPH
rain 1hr
in
rain 24hr
in
rain mn
in
humidity
%
barometer
mb
20260906093518 74 258 0.0 3.0 0.00 0.00 0.00 91 1013.9
20260906093043 74 250 0.0 3.0 0.00 0.00 0.00 91 1013.8
20260906092519 75 0 0.0 3.0 0.00 0.00 0.00 91 1013.9
20260906092019 75 280 1.0 3.0 0.00 0.00 0.00 91 1013.7
20260906091540 75 262 1.0 3.0 0.00 0.00 0.00 91 1013.7
20260906091023 75 247 0.0 3.0 0.00 0.00 0.00 91 1013.7
20260906090522 75 0 0.0 3.0 0.00 0.00 0.00 91 1013.7
20260906090040 75 0 0.0 2.0 0.00 0.00 0.00 91 1013.8
20260906085520 75 0 0.0 3.0 0.00 0.00 0.00 91 1013.7
20260906085019 75 236 1.0 3.0 0.00 0.00 0.00 91 1013.7
20260906084547 75 256 1.0 3.0 0.00 0.00 0.00 91 1013.6
20260906084020 75 255 0.0 2.0 0.00 0.00 0.00 91 1013.6
20260906083519 75 0 0.0 2.0 0.00 0.00 0.00 91 1013.7
20260906083036 75 0 0.0 2.0 0.00 0.00 0.00 90 1013.7
20260906082520 75 245 0.0 2.0 0.00 0.00 0.00 90 1013.7
20260906082019 75 0 0.0 2.0 0.00 0.00 0.00 90 1013.6
20260906081534 76 0 0.0 2.0 0.00 0.00 0.00 90 1013.5
20260906081018 76 0 0.0 2.0 0.00 0.00 0.00 90 1013.4
20260906080518 76 260 0.0 3.0 0.00 0.00 0.00 89 1013.4
20260906080050 76 0 0.0 3.0 0.00 0.00 0.00 89 1013.4
20260906075520 76 259 1.0 3.0 0.00 0.00 0.00 89 1013.4
20260906075020 76 242 0.0 3.0 0.00 0.00 0.00 89 1013.4
20260906074542 76 254 0.0 3.0 0.00 0.00 0.00 89 1013.4
20260906074019 76 235 0.0 3.0 0.00 0.00 0.00 89 1013.4
20260906073520 76 254 0.0 3.0 0.00 0.00 0.00 89 1013.4
20260906073034 76 0 0.0 4.0 0.00 0.00 0.00 89 1013.3
20260906072519 77 252 1.0 4.0 0.00 0.00 0.00 88 1013.4
20260906072021 77 0 1.0 4.0 0.00 0.00 0.00 88 1013.3
20260906071536 77 266 1.0 3.0 0.00 0.00 0.00 88 1013.3
20260906071019 77 288 1.0 7.0 0.00 0.00 0.00 88 1013.3
20260906070517 77 0 1.0 7.0 0.00 0.00 0.00 88 1013.4
20260906070040 77 0 1.0 3.0 0.00 0.00 0.00 88 1013.5
20260906065518 77 257 1.0 4.0 0.00 0.00 0.00 88 1013.5
20260906065020 78 229 1.0 4.0 0.00 0.00 0.00 89 1013.6
20260906064536 78 231 1.0 4.0 0.00 0.00 0.00 89 1013.6
20260906064019 78 247 1.0 4.0 0.00 0.00 0.00 89 1013.6
20260906063518 78 250 0.0 4.0 0.00 0.00 0.00 89 1013.6
20260906063040 78 257 0.0 4.0 0.00 0.00 0.00 89 1013.7
20260906062518 78 0 0.0 3.0 0.00 0.00 0.00 89 1013.7
20260906062021 78 0 0.0 3.0 0.00 0.00 0.00 89 1013.8
20260906061541 78 0 0.0 3.0 0.00 0.00 0.00 89 1013.8
20260906061021 78 0 0.0 2.0 0.00 0.00 0.00 89 1013.8
20260906060524 78 0 0.0 3.0 0.00 0.00 0.00 89 1013.9
20260906060047 78 252 0.0 3.0 0.00 0.00 0.00 89 1013.9
20260906055519 78 239 0.0 3.0 0.00 0.00 0.00 90 1013.9
20260906055018 78 250 0.0 3.0 0.00 0.00 0.00 90 1014.0
20260906054541 78 235 0.0 2.0 0.00 0.00 0.00 90 1014.0
20260906054019 78 222 0.0 3.0 0.00 0.00 0.00 90 1014.0
20260906053521 78 238 0.0 3.0 0.00 0.00 0.00 90 1014.0
20260906053038 78 252 0.0 3.0 0.00 0.00 0.00 90 1014.0
20260906052521 78 252 0.0 3.0 0.00 0.00 0.00 90 1014.0
20260906052022 77 272 0.0 2.0 0.00 0.00 0.00 90 1014.0
20260906051537 77 0 0.0 1.0 0.00 0.00 0.00 90 1014.0
20260906051019 77 0 0.0 0.0 0.00 0.00 0.00 89 1013.9
20260906050518 77 0 0.0 0.0 0.00 0.00 0.00 89 1013.8
20260906050044 77 0 0.0 0.0 0.00 0.00 0.00 89 1013.9
20260906045518 77 0 0.0 0.0 0.00 0.00 0.00 89 1014.0
20260906045022 77 0 0.0 0.0 0.00 0.00 0.00 88 1014.0
20260906044538 77 0 0.0 1.0 0.00 0.00 0.00 89 1013.8
20260906044023 77 0 0.0 1.0 0.00 0.00 0.00 89 1013.7
20260906043520 77 0 0.0 0.0 0.00 0.00 0.00 89 1013.6
20260906043037 77 0 0.0 0.0 0.00 0.00 0.00 89 1013.5
20260906042518 77 0 0.0 2.0 0.00 0.00 0.00 88 1013.4
20260906042019 77 0 0.0 2.0 0.00 0.00 0.00 88 1013.4
20260906041544 77 266 0.0 0.0 0.00 0.00 0.00 88 1013.4
20260906041018 77 0 0.0 0.0 0.00 0.00 0.00 87 1013.4
20260906040518 77 0 0.0 0.0 0.00 0.00 0.00 87 1013.4
20260906040046 77 0 0.0 0.0 0.00 0.00 0.00 87 1013.4
20260906035522 77 0 0.0 0.0 0.00 0.00 0.00 87 1013.3
20260906035018 77 0 0.0 0.0 0.00 0.00 0.00 86 1013.3
20260906034538 77 0 0.0 0.0 0.00 0.00 0.00 86 1013.2
20260906034019 77 0 0.0 0.0 0.00 0.00 0.00 86 1013.1
20260906033518 78 0 0.0 0.0 0.00 0.00 0.00 86 1013.2
20260906033037 78 0 0.0 2.0 0.00 0.00 0.00 86 1013.1
20260906032519 78 0 0.0 2.0 0.00 0.00 0.00 86 1013.1
20260906032018 78 275 0.0 3.0 0.00 0.00 0.00 87 1013.1
20260906031539 78 0 0.0 5.0 0.00 0.00 0.00 87 1013.0
20260906031017 78 0 1.0 5.0 0.00 0.00 0.00 86 1013.0
20260906030516 78 327 0.0 2.0 0.00 0.00 0.00 86 1013.2
20260906030037 78 0 0.0 1.0 0.00 0.00 0.00 85 1012.9
20260906025521 78 0 0.0 0.0 0.00 0.00 0.00 85 1012.7
20260906025022 78 0 0.0 0.0 0.00 0.00 0.00 84 1012.7
20260906024538 79 0 0.0 0.0 0.00 0.00 0.00 84 1012.7
20260906024019 79 0 0.0 1.0 0.00 0.00 0.00 84 1012.5
20260906023520 79 0 0.0 1.0 0.00 0.00 0.00 84 1012.5
20260906023044 79 0 0.0 1.0 0.00 0.00 0.00 83 1012.4
20260906022515 79 0 0.0 1.0 0.00 0.00 0.00 83 1012.3
20260906022023 79 0 0.0 1.0 0.00 0.00 0.00 83 1012.3
20260906021540 80 0 0.0 0.0 0.00 0.00 0.00 83 1012.3
20260906021019 80 0 0.0 0.0 0.00 0.00 0.00 82 1012.3
20260906020518 80 0 0.0 0.0 0.00 0.00 0.00 81 1012.3
20260906020039 80 0 0.0 0.0 0.00 0.00 0.00 81 1012.4
20260906015518 80 0 0.0 0.0 0.00 0.00 0.00 81 1012.3
20260906015019 80 0 0.0 1.0 0.00 0.00 0.00 81 1012.3
20260906014539 80 0 0.0 1.0 0.00 0.00 0.00 80 1012.2
20260906014017 81 0 0.0 2.0 0.00 0.00 0.00 80 1012.2
20260906013518 81 0 0.0 2.0 0.00 0.00 0.00 80 1012.1
20260906013037 81 0 1.0 2.0 0.00 0.00 0.00 80 1012.2
20260906012515 81 0 0.0 0.0 0.00 0.00 0.00 78 1012.1
20260906012016 82 0 0.0 0.0 0.00 0.00 0.00 77 1012.0
20260906011538 82 0 0.0 0.0 0.00 0.00 0.00 77 1012.1
20260906011020 82 0 0.0 0.0 0.00 0.00 0.00 76 1012.0
20260906010518 82 0 0.0 0.0 0.00 0.00 0.00 76 1012.0
20260906010037 83 0 0.0 0.0 0.00 0.00 0.00 75 1012.0
20260906005519 83 0 0.0 0.0 0.00 0.00 0.00 75 1011.9
20260906005022 83 0 0.0 0.0 0.00 0.00 0.00 75 1011.9
20260906004537 83 0 0.0 0.0 0.00 0.00 0.00 74 1011.8
20260906004021 84 0 0.0 1.0 0.00 0.00 0.00 74 1011.8
20260906003519 84 0 0.0 1.0 0.00 0.00 0.00 73 1011.8
20260906003041 84 0 0.0 0.0 0.00 0.00 0.00 72 1011.9
20260906002518 85 0 0.0 0.0 0.00 0.00 0.00 71 1011.9
20260906002016 85 0 0.0 0.0 0.00 0.00 0.00 72 1012.0
20260906001540 85 0 0.0 0.0 0.00 0.00 0.00 71 1012.0
20260906001019 85 0 0.0 2.0 0.00 0.00 0.00 70 1012.0
20260906000525 85 0 0.0 4.0 0.00 0.00 0.00 70 1012.1
20260906000040 85 341 1.0 4.0 0.00 0.00 0.00 70 1012.1
20260905235520 86 342 1.0 3.0 0.00 0.00 0.00 69 1012.2
20260905235016 86 0 0.0 4.0 0.00 0.00 0.00 69 1012.2
20260905234535 86 0 1.0 4.0 0.00 0.00 0.00 68 1012.2
20260905234021 86 13 1.0 5.0 0.00 0.00 0.00 69 1012.2
20260905233519 86 318 2.0 8.0 0.00 0.00 0.00 68 1012.1
20260905233057 86 314 2.0 8.0 0.00 0.00 0.00 67 1012.0
20260905232523 87 343 2.0 8.0 0.00 0.00 0.00 69 1011.9
20260905232021 86 304 1.0 4.0 0.00 0.00 0.00 71 1012.0
20260905231549 86 0 0.0 1.0 0.00 0.00 0.00 72 1011.7
20260905231019 86 0 0.0 1.0 0.00 0.00 0.00 70 1011.7
20260905230524 86 0 0.0 1.0 0.00 0.00 0.00 69 1011.7
20260905230045 86 0 0.0 1.0 0.00 0.00 0.00 71 1011.7
20260905225521 86 0 0.0 1.0 0.00 0.00 0.00 67 1011.6
20260905225020 87 333 0.0 5.0 0.00 0.00 0.00 66 1011.6
20260905224554 88 0 0.0 6.0 0.00 0.00 0.00 62 1011.6
20260905224019 88 352 1.0 6.0 0.00 0.00 0.00 64 1011.5
20260905223522 88 0 0.0 1.0 0.00 0.00 0.00 64 1011.5
20260905223039 88 0 0.0 1.0 0.00 0.00 0.00 63 1011.5
20260905222526 88 0 0.0 3.0 0.00 0.00 0.00 67 1011.4
20260905222017 88 0 1.0 3.0 0.00 0.00 0.00 66 1011.4
20260905221541 88 0 0.0 3.0 0.00 0.00 0.00 69 1011.4
20260905221024 88 0 0.0 4.0 0.00 0.00 0.00 66 1011.4
20260905220522 88 317 1.0 4.0 0.00 0.00 0.00 66 1011.4
20260905220035 88 337 0.0 5.0 0.00 0.00 0.00 67 1011.4
20260905215519 88 350 2.0 13.0 0.00 0.00 0.00 65 1011.4
20260905215018 89 28 3.0 13.0 0.00 0.00 0.00 65 1011.3
20260905214542 90 302 5.0 13.0 0.00 0.00 0.00 62 1011.5
20260905214018 90 99 0.0 2.0 0.00 0.00 0.00 68 1011.4
20260905213520 89 0 0.0 2.0 0.00 0.00 0.00 66 1011.4
20260905213039 89 101 0.0 2.0 0.00 0.00 0.00 65 1011.3
20260905212518 88 128 0.0 2.0 0.00 0.00 0.00 66 1011.4
20260905212024 88 0 0.0 3.0 0.00 0.00 0.00 65 1011.3
20260905211537 89 128 0.0 3.0 0.00 0.00 0.00 64 1011.4
20260905211019 89 218 0.0 2.0 0.00 0.00 0.00 62 1011.5
20260905210519 90 216 1.0 2.0 0.00 0.00 0.00 60 1011.5
20260905210038 91 0 0.0 3.0 0.00 0.00 0.00 58 1011.6
20260905205518 91 0 1.0 13.0 0.00 0.00 0.00 56 1011.6
20260905205023 90 110 4.0 13.0 0.00 0.00 0.00 53 1011.8
20260905204535 89 200 4.0 12.0 0.00 0.00 0.00 53 1012.0
20260905204020 91 128 5.0 12.0 0.00 0.00 0.00 50 1011.9
20260905203519 92 213 0.0 7.0 0.00 0.00 0.00 59 1011.8
20260905203038 94 269 3.0 7.0 0.00 0.00 0.00 53 1011.7
20260905202519 96 165 3.0 7.0 0.00 0.00 0.00 51 1011.7
20260905202019 97 163 0.0 7.0 0.00 0.00 0.00 48 1011.6
20260905201540 97 163 3.0 7.0 0.00 0.00 0.00 48 1011.8
20260905201020 97 236 1.0 8.0 0.00 0.00 0.00 48 1011.8
20260905200520 97 254 2.0 8.0 0.00 0.00 0.00 49 1011.8
20260905200037 97 0 1.0 4.0 0.00 0.00 0.00 49 1011.8
20260905195521 97 274 1.0 5.0 0.00 0.00 0.00 47 1011.8
20260905195020 97 142 2.0 5.0 0.00 0.00 0.00 46 1012.0
20260905194537 97 0 1.0 7.0 0.00 0.00 0.00 49 1012.0
20260905194019 96 240 1.0 7.0 0.00 0.00 0.00 49 1012.3
20260905193519 98 248 1.0 7.0 0.00 0.00 0.00 49 1012.2
20260905193033 98 135 2.0 7.0 0.00 0.00 0.00 48 1012.2
20260905192525 98 167 1.0 6.0 0.00 0.00 0.00 49 1012.3
20260905192018 97 230 1.0 5.0 0.00 0.00 0.00 51 1012.3
20260905191538 97 119 2.0 6.0 0.00 0.00 0.00 48 1012.5
20260905191019 97 229 1.0 8.0 0.00 0.00 0.00 49 1012.7
20260905190527 97 183 3.0 8.0 0.00 0.00 0.00 48 1012.7
20260905190056 96 180 2.0 7.0 0.00 0.00 0.00 49 1012.8
20260905185521 96 0 0.0 3.0 0.00 0.00 0.00 57 1012.8
20260905185019 95 0 0.0 3.0 0.00 0.00 0.00 55 1012.9
20260905184557 95 350 1.0 3.0 0.00 0.00 0.00 56 1013.1
20260905184018 94 37 0.0 3.0 0.00 0.00 0.00 61 1013.1
20260905183518 94 74 0.0 5.0 0.00 0.00 0.00 57 1013.1
20260905183036 94 0 0.0 5.0 0.00 0.00 0.00 59 1013.2
20260905182518 94 315 2.0 5.0 0.00 0.00 0.00 57 1013.1
20260905182018 95 37 1.0 4.0 0.00 0.00 0.00 58 1013.2
20260905181543 95 0 0.0 4.0 0.00 0.00 0.00 59 1013.3
20260905181022 94 223 1.0 4.0 0.00 0.00 0.00 59 1013.4
20260905180521 94 313 1.0 8.0 0.00 0.00 0.00 58 1013.4
20260905180036 94 94 1.0 8.0 0.00 0.00 0.00 57 1013.4
20260905175521 94 296 2.0 8.0 0.00 0.00 0.00 59 1013.4
20260905175020 94 319 1.0 6.0 0.00 0.00 0.00 60 1013.4
20260905174544 94 344 1.0 4.0 0.00 0.00 0.00 64 1013.5
20260905174018 94 42 1.0 4.0 0.00 0.00 0.00 63 1013.5
20260905173519 94 0 0.0 4.0 0.00 0.00 0.00 61 1013.5
20260905173040 94 360 1.0 5.0 0.00 0.00 0.00 60 1013.5
20260905172516 93 0 1.0 5.0 0.00 0.00 0.00 63 1013.7
20260905172021 92 126 0.0 6.0 0.00 0.00 0.00 63 1014.0
20260905171539 92 113 3.0 6.0 0.00 0.00 0.00 62 1014.1
20260905171020 92 167 1.0 4.0 0.00 0.00 0.00 60 1014.1
20260905170520 93 34 1.0 4.0 0.00 0.00 0.00 60 1014.2
20260905170035 93 322 1.0 4.0 0.00 0.00 0.00 63 1014.1
20260905165519 93 0 1.0 3.0 0.00 0.00 0.00 60 1014.2
20260905165019 92 311 0.0 3.0 0.00 0.00 0.00 62 1014.3
20260905164535 92 309 1.0 3.0 0.00 0.00 0.00 64 1014.4
20260905164017 91 167 1.0 3.0 0.00 0.00 0.00 60 1014.4
20260905163516 91 105 1.0 4.0 0.00 0.00 0.00 62 1014.4
20260905163040 91 90 1.0 4.0 0.00 0.00 0.00 63 1014.4
20260905162520 92 41 1.0 6.0 0.00 0.00 0.00 63 1014.4
20260905162021 92 125 2.0 6.0 0.00 0.00 0.00 63 1014.3
20260905161537 92 292 1.0 4.0 0.00 0.00 0.00 61 1014.4
20260905161020 91 348 0.0 3.0 0.00 0.00 0.00 63 1014.5
20260905160519 91 196 0.0 3.0 0.00 0.00 0.00 62 1014.5
20260905160036 91 336 1.0 3.0 0.00 0.00 0.00 61 1014.7
20260905155517 91 0 0.0 5.0 0.00 0.00 0.00 60 1014.8
20260905155018 91 352 1.0 6.0 0.00 0.00 0.00 63 1014.8
20260905154540 91 310 1.0 7.0 0.00 0.00 0.00 61 1014.7
20260905154020 91 15 1.0 7.0 0.00 0.00 0.00 62 1014.7
20260905153521 91 0 1.0 4.0 0.00 0.00 0.00 64 1014.7
20260905153038 90 42 1.0 4.0 0.00 0.00 0.00 61 1014.9
20260905152521 90 0 0.0 4.0 0.00 0.00 0.00 63 1015.0
20260905152020 90 333 1.0 8.0 0.00 0.00 0.00 62 1014.8
20260905151542 90 329 1.0 11.0 0.00 0.00 0.00 64 1014.8
20260905151019 89 352 2.0 11.0 0.00 0.00 0.00 64 1014.7
20260905150520 89 360 4.0 11.0 0.00 0.00 0.00 63 1014.8
20260905150042 89 352 3.0 8.0 0.00 0.00 0.00 68 1014.8
20260905145517 89 341 2.0 8.0 0.00 0.00 0.00 67 1014.7
20260905145019 89 325 2.0 8.0 0.00 0.00 0.00 65 1014.7
20260905144543 89 350 3.0 6.0 0.00 0.00 0.00 67 1014.9
20260905144020 88 333 1.0 4.0 0.00 0.00 0.00 67 1014.9
20260905143516 88 0 1.0 4.0 0.00 0.00 0.00 66 1014.8
20260905143039 88 320 1.0 3.0 0.00 0.00 0.00 69 1014.8
20260905142523 87 0 1.0 3.0 0.00 0.00 0.00 69 1014.9
20260905142018 86 0 0.0 1.0 0.00 0.00 0.00 75 1014.8
20260905141543 86 0 0.0 1.0 0.00 0.00 0.00 72 1014.7
20260905141020 86 0 0.0 3.0 0.00 0.00 0.00 69 1014.7
20260905140519 86 0 0.0 3.0 0.00 0.00 0.00 71 1014.7
20260905140041 86 141 0.0 3.0 0.00 0.00 0.00 71 1014.7
20260905135516 86 117 0.0 2.0 0.00 0.00 0.00 73 1014.7
20260905135018 85 0 0.0 1.0 0.00 0.00 0.00 75 1014.6
20260905134537 85 0 0.0 1.0 0.00 0.00 0.00 74 1014.6
20260905134023 85 0 0.0 2.0 0.00 0.00 0.00 75 1014.6
20260905133520 84 0 0.0 2.0 0.00 0.00 0.00 73 1014.7
20260905133037 84 0 0.0 2.0 0.00 0.00 0.00 75 1014.7
20260905132522 83 115 0.0 2.0 0.00 0.00 0.00 76 1014.7
20260905132020 83 0 1.0 4.0 0.00 0.00 0.00 77 1014.7
20260905131553 83 150 1.0 4.0 0.00 0.00 0.00 78 1014.7
20260905131018 82 161 0.0 4.0 0.00 0.00 0.00 81 1014.8
20260905130519 81 0 1.0 4.0 0.00 0.00 0.00 82 1014.9
20260905130040 79 161 0.0 2.0 0.00 0.00 0.00 88 1014.9
20260905125518 78 161 0.0 1.0 0.00 0.00 0.00 90 1014.9
20260905125018 78 0 0.0 1.0 0.00 0.00 0.00 90 1014.9
20260905124548 77 0 0.0 1.0 0.00 0.00 0.00 91 1014.9
20260905124022 77 0 0.0 1.0 0.00 0.00 0.00 91 1014.9
20260905123519 77 0 0.0 0.0 0.00 0.00 0.00 91 1015.0
20260905123053 76 0 0.0 0.0 0.00 0.00 0.00 91 1015.1
20260905122520 76 0 0.0 0.0 0.00 0.00 0.00 91 1015.1
20260905122020 76 0 0.0 0.0 0.00 0.00 0.00 91 1015.0
20260905121536 76 0 0.0 0.0 0.00 0.00 0.00 91 1015.0
20260905121017 76 0 0.0 0.0 0.00 0.00 0.00 90 1014.9
20260905120522 76 0 0.0 0.0 0.00 0.00 0.00 90 1015.0
20260905120040 76 0 0.0 0.0 0.00 0.00 0.00 90 1014.8
20260905115518 76 0 0.0 0.0 0.00 0.00 0.00 90 1014.9
20260905115021 76 0 0.0 0.0 0.00 0.00 0.00 89 1014.8
20260905114544 76 0 0.0 1.0 0.00 0.00 0.00 89 1014.8
20260905114018 76 0 0.0 1.0 0.00 0.00 0.00 90 1014.9
20260905113518 76 0 0.0 2.0 0.00 0.00 0.00 89 1014.9
20260905113041 76 0 0.0 2.0 0.00 0.00 0.00 89 1014.7
20260905112516 76 161 0.0 1.0 0.00 0.00 0.00 88 1014.6
20260905112019 77 0 0.0 1.0 0.00 0.00 0.00 88 1014.5
20260905111550 77 0 0.0 1.0 0.00 0.00 0.00 88 1014.4
20260905111023 77 0 0.0 1.0 0.00 0.00 0.00 87 1014.3
20260905110520 77 0 0.0 1.0 0.00 0.00 0.00 87 1014.1
20260905110037 77 0 0.0 1.0 0.00 0.00 0.00 87 1014.0
20260905105521 77 0 0.0 2.0 0.00 0.00 0.00 87 1014.0
20260905105019 78 161 0.0 2.0 0.00 0.00 0.00 86 1013.9
20260905104540 78 161 0.0 2.0 0.00 0.00 0.00 85 1013.9
20260905104018 78 0 0.0 1.0 0.00 0.00 0.00 84 1013.9
20260905103520 78 0 0.0 2.0 0.00 0.00 0.00 84 1013.9
20260905103038 78 0 0.0 3.0 0.00 0.00 0.00 84 1014.0
20260905102519 78 161 0.0 5.0 0.00 0.00 0.00 84 1014.1
20260905102020 78 198 1.0 5.0 0.00 0.00 0.00 85 1014.1
20260905101541 77 187 1.0 4.0 0.00 0.00 0.00 85 1014.1
20260905101020 77 187 0.0 1.0 0.00 0.00 0.00 87 1014.2
20260905100520 77 0 0.0 2.0 0.00 0.00 0.00 87 1014.2
20260905100038 77 0 0.0 2.0 0.00 0.00 0.00 87 1014.1
20260905095519 78 0 0.0 0.0 0.00 0.00 0.00 88 1014.1
20260905095018 77 0 0.0 0.0 0.00 0.00 0.00 88 1014.0
20260905094538 77 0 0.0 2.0 0.00 0.00 0.00 88 1014.0
20260905094020 77 0 0.0 2.0 0.00 0.00 0.00 88 1014.0